Location: Nelson
(41.2830°S, 173.2830°E)
Time: 09:42:16
(UTC+13:00)

Gbstr 26 Del rocket - Pass Details

Date: 24 January 2019
Orbit: 493 x 1264 km, 51.8° (Epoch: 21 February)

Event Time Altitude Azimuth Distance (km) Brightness Sun altitude
Rises 23:39:53 0° 233° (SW) 2,740 7.5 -23.5°
Reaches altitude 10° 23:42:27 10° 220° (SW) 1,779 6.5 -23.8°
Maximum altitude 23:45:50 27° 161° (SSE) 1,006 4.5 -24.1°
Enters shadow 23:46:50 24° 134° (SE) 1,085 4.4 -24.2°
